Regional Weather Roundup
Issued by NWS

Home | Current Version | Previous Version | Text Only | Print | Product List | Glossary Off
Versions: 1 2 3 4 5 6 7 8 9 10 11 12 13 14 15 16 17 18 19 20 21 22 23 24 25 26 27 28 29 30 31 32 33 34 35 36 37 38 39 40 41 42 43 44 45 46 47 48 49 50

915
ASUS43 KLOT 300007
RWRIL

ILLINOIS REGIONAL WEATHER ROUNDUP
NATIONAL WEATHER SERVICE CHICAGO/ROMEOVILLE IL
700 PM CDT SAT APR 29 2017

NOTE: "FAIR" INDICATES FEW OR NO CLOUDS BELOW 12,000 FEET WITH NO
SIGNIFICANT WEATHER AND/OR OBSTRUCTIONS TO VISIBILITY.

* THESE STATIONS ARE NOT UNDER NWS QUALITY CONTROL. THEY ALSO MAY NOT
  REPORT WEATHER SUCH AS PRECIPITATION OR FOG.

ILZ001-002-007-009-015-016-024-300100-
NORTHWEST ILLINOIS

CITY           SKY/WX    TMP DP  RH WIND       PRES   REMARKS
MOLINE         LGT RAIN  41  36  82 NE24G36   29.88F
6HR MIN TEMP:  41; 6HR MAX TEMP:  44; 6HR PCP:  0.90;

STERLING*      LGT RAIN  40  38  93 NE23G33   29.99F FOG
SAVANNA*       CLOUDY    40  37  87 NE22G30   30.00F
$$

ILZ003-004-008-010-011-017-018-300100-
NORTH CENTRAL ILLINOIS

CITY           SKY/WX    TMP DP  RH WIND       PRES   REMARKS
ROCKFORD       LGT RAIN  40  36  86 NE21G33   30.08F FOG
6HR MIN TEMP:  39; 6HR MAX TEMP:  44; 6HR PCP:  0.72;

FREEPORT*      LGT RAIN  38  36  92 NE22G32   30.09F WCI  27
ROCHELLE*      RAIN      38  37  97 NE30G39   30.03F WCI  25
DE KALB*       RAIN      38  37  96 NE28G35   30.06F WCI  26
PERU*          RAIN      38  37  96 NE29G39   29.97F WCI  26
$$

ILZ005-006-012>014-019>023-300100-
NORTHEAST ILLINOIS

CITY           SKY/WX    TMP DP  RH WIND       PRES   REMARKS
CHICAGO-OHARE  HVY RAIN  40  38  93 NE18G26   30.11F FOG
6HR MIN TEMP:  40; 6HR MAX TEMP:  42; 6HR PCP:  0.75;

CHICAGO-MIDWAY RAIN      42  41  96 NE21G35   30.09F FOG
6HR MIN TEMP:  41; 6HR MAX TEMP:  43; 6HR PCP:  1.01;

AURORA         HVY RAIN  41  39  93 NE30G40   30.03F FOG
6HR MIN TEMP:  40; 6HR MAX TEMP:  42; 6HR PCP:  1.06;

LANSING*       RAIN      42  42 100 N14G22    30.09R
JOLIET*        TSTM      42  41  97 NE18G31   30.03F
WAUKEGAN       LGT RAIN  39  37  92 N17G26    30.15F FOG     WCI  30
6HR MIN TEMP:  38; 6HR MAX TEMP:  40;

DUPAGE AIRPORT HVY RAIN  39  39 100 NE18G28   30.09F FOG     WCI  30
6HR MIN TEMP:  39; 6HR MAX TEMP:  41; 6HR PCP:  0.83;

KANKAKEE*      CLOUDY    44  43  95 NE28G36   29.96F
WHEELING       RAIN      39  39 100 N16G29    30.14F FOG     WCI  30
6HR MIN TEMP:  38; 6HR MAX TEMP:  40; 6HR PCP:  0.64;

MORRIS*        TSTM      41  39  95 NE12G22   29.96F
ROMEOVILLE*    TSTM      40  40 100 NE23G31   30.04F VSB 3/4
NORTHERLY ISL    N/A     41  39  93 N22         N/A
$$

LMZ740>746-300100-
SOUTHERN LAKE MICHIGAN

STATION/POSITION SKY/WX   TEMP    WIND        PRES    VSBY  WAVE
                          AIR SEA DIR/SP/G                  HT/PER
                          (F)     (DEG/KT/KT) (MB)    (MI)  (FT/S)
SOUTHERN BUOY              40 41   10/ 16/ 17 1022.4          7/ 7
HARRISON CRIB              41      10/ 30/ 32   N/A
BURNHAM HARBOR             41      30/ 25/ 27   N/A
CALUMET HARBOR             42     350/ 19/ 27 1018.6F
BURNS HARBOR               45      30/ 26     1017.3F
MICHIGAN CITY              44      20/ 25/ 27   N/A
MICHIGAN CITY 6N           44 47                N/A           7/ 7
ST. JOSEPH                 49 49   70/ 17/ 21 1019.7          6/ 7
$$

ILZ025>027-034>036-040-047-049-050-058-095>099-300100-
WEST-CENTRAL ILLINOIS

CITY           SKY/WX    TMP DP  RH WIND       PRES   REMARKS
QUINCY         LGT RAIN  43  42  97 NE13      29.87F
GALESBURG*     LGT RAIN  40  39  97 NE20G28   29.91F
MACOMB*        LGT SNOW  42  42  99 E31G39    29.89F
JACKSONVILLE*  RAIN      44  43  96 N6        29.91R
PITTSFIELD*    LGT RAIN  44  43  96 NE18      29.88F
$$

ILZ028>032-037-038-041>044-048-051>054-059>061-300100-
CENTRAL ILLINOIS

CITY           SKY/WX    TMP DP  RH WIND       PRES   REMARKS
PONTIAC        TSTM      44  44  98 NE36G46   29.85F
BLOOMINGTON    LGT RAIN  45  44  97 N20G40    29.85R FOG
DECATUR        RAIN      61  61 100 S16       29.84R
PEORIA         RAIN      43  42  97 NE22G31   29.92R FOG
6HR MIN TEMP:  41; 6HR MAX TEMP:  46; 6HR PCP:  2.53;

LACON*         HVY RAIN  42  42 100 N8G26     29.93R
LINCOLN*       LGT RAIN  46  46  98 N16G23    29.87R
SPRINGFIELD    RAIN      47  45  93 N16G26    29.87R FOG
6HR MIN TEMP:  47; 6HR MAX TEMP:  53; 6HR PCP:  0.59;

TAYLORVILLE    RAIN      51  50  96 NW6       29.85R
6HR MIN TEMP:  51; 6HR MAX TEMP:  63; 6HR PCP:  0.63;

$$

ILZ033-039-045-046-055>057-062-063-300100-
EAST-CENTRAL ILLINOIS

CITY           SKY/WX    TMP DP  RH WIND       PRES   REMARKS
CHAMPAIGN      TSTM      57  56  96 E24G47    29.80R VSB 1/2
RANTOUL*       CLOUDY    55  55  99 NE29G37   29.81F FOG
MATTOON        TSTM      62  60  93 SW14G33   29.83R FOG
PARIS*         CLOUDY   N/A N/A N/A NE16      29.83F
$$

ILZ079-100>102-300100-
SOUTHWEST ILLINOIS

CITY           SKY/WX    TMP DP  RH WIND       PRES   REMARKS
ALTON          TSTM      55  54  94 W12       29.88R
BELLEVILLE     LGT RAIN  64  64 100 S3        29.86R
CAHOKIA*       TSTM      65  62  90 SW3       29.86R FOG
SPARTA*        RAIN      63  63 100 W5        29.88R
$$

ILZ064>066-069>071-074>076-080>082-084>086-088>090-092>094-300100-
SOUTH-CENTRAL ILLINOIS

CITY           SKY/WX    TMP DP  RH WIND       PRES   REMARKS
CARBONDALE     CLOUDY    67  63  87 NW21G32   29.84R
6HR MIN TEMP:  67; 6HR MAX TEMP:  82; 6HR PCP:  0.02;

CAIRO*         CLOUDY    81  68  65 S12       29.82F HX  84
EFFINGHAM*     TSTM      63  63 100 S6        29.87R
MT. VERNON     TSTM      64  63  94 VRB6      29.86R FOG
CENTRALIA*     TSTM      65  64  97 SW9       29.83F
SALEM*         CLOUDY    65  63  91 W8G18     29.85F
METROPOLIS*    PTCLDY    82  67  59 S12       29.84F HX  85
$$

ILZ067-068-072-073-078-083-087-091-300100-
SOUTHEAST ILLINOIS

CITY           SKY/WX    TMP DP  RH WIND       PRES   REMARKS
LAWRENCEVILLE  CLOUDY    77  70  79 S8        29.84R
FLORA*         TSTM      69  62  78 W10G28    29.90R
FAIRFIELD*     CLOUDY    79  67  67 S7        29.81F HX  81
HARRISBURG*    CLOUDY    80  68  67 S10G16    29.83F HX  82
ROBINSON*      CLOUDY    75  68  77 SE9       29.84S
CARMI*         CLOUDY    80  69  68 S12G20    29.83F HX  83
$$

ABBREVIATIONS USED IN REMARKS
   TC - TEMPERATURE IN CELSIUS
  WCI - WIND CHILL INDEX
   HX - HEAT INDEX
  VSB - VISIBILITY
$$





USA.gov is the U.S. government's official web portal to all federal, state and local government web resources and services.